Weather History for KDNN - March, 2013

Change the Weather History Date:

Sunday, March 24, 2013

  Actual Average Record
Temperature  
Mean Temperature 50 °F -  
Max Temperature 57 °F 64 °F 80 °F (2007)
Min Temperature 42 °F 39 °F 24 °F (1968)
Degree Days  
Heating Degree Days 16    
Moisture  
Dew Point 47 °F    
Average Humidity 90    
Maximum Humidity 100    
Minimum Humidity 62    
Precipitation  
Precipitation 0.06 in - - ()
Sea Level Pressure  
Sea Level Pressure 29.62 in    
Wind  
Wind Speed 5 mph (SSW)    
Max Wind Speed 14 mph    
Max Gust Speed 29 mph    
Visibility 8 miles    
Events Rain , Thunderstorm    
Averages and records for this station are not official NWS values.
T = Trace of Precipitation, MM = Missing Value Source: NWS Daily Summary

Daily Weather History Graph

Daily Weather History Graph

Search for Another Location

Airport or City:

Trip Planner

Search our weather history database for the weather conditions in past years. The results will help you decide how hot, cold, wet, or windy it might be!

Date:

Astronomy

Mar. 24, 2013 Rise Set
Actual Time 7:37 AM EDT 7:54 PM EDT
Civil Twilight 7:12 AM EDT 8:19 PM EDT
Nautical Twilight 6:42 AM EDT 8:49 PM EDT
Astronomical Twilight 6:12 AM EDT 9:19 PM EDT
Moon 5:26 PM EDT (3/24) 5:41 AM EDT (3/24)
Length of Visible Light 13h 07m
Length of Day
12h 17m
Waxing Gibbous, 91% of the Moon is Illuminated
Mar 24
Waxing Gibbous
Mar 27
Full
Apr 3
Last Quarter
Apr 10
New
Apr 18
First Quarter

Hourly Weather History & Observations

Time (EDT) Temp. Windchill Dew Point Humidity Pressure Visibility Wind Dir Wind Speed Gust Speed Precip Events Conditions
12:15 AM 50.0 °F - 50.0 °F 100% 29.82 in 10.0 mi NNW 8.1 mph - N/A Rain , Thunderstorm Rain
12:35 AM 50.0 °F - 50.0 °F 100% 29.83 in 7.0 mi NW 9.2 mph - N/A Rain Rain
12:55 AM 48.2 °F - 48.2 °F 100% 29.81 in 5.0 mi North 3.5 mph - N/A Rain Rain
1:15 AM 48.2 °F - 48.2 °F 100% 29.83 in 5.0 mi Calm Calm - N/A Rain , Thunderstorm Thunderstorms and Rain
1:35 AM 48.2 °F - 48.2 °F 100% 29.81 in 3.0 mi Calm Calm - 0.01 in Rain Rain
1:55 AM 46.4 °F - 46.4 °F 100% 29.78 in 2.5 mi Calm Calm - 0.01 in Rain Rain
2:15 AM 46.4 °F - 46.4 °F 100% 29.76 in 2.5 mi Calm Calm - N/A Rain Heavy Rain
2:35 AM 46.4 °F 45.2 °F 46.4 °F 100% 29.77 in 2.5 mi South 3.5 mph - N/A Rain , Thunderstorm Thunderstorms and Rain
2:55 AM 46.4 °F 44.3 °F 46.4 °F 100% 29.75 in 2.5 mi South 4.6 mph - N/A Rain , Thunderstorm Rain
3:15 AM 46.4 °F 43.5 °F 46.4 °F 100% 29.73 in 3.0 mi SSE 5.8 mph - 0.01 in Rain , Thunderstorm Rain
3:35 AM 48.2 °F - 48.2 °F 100% 29.63 in 5.0 mi ESE 8.1 mph - 0.02 in Rain Light Rain
3:55 AM 50.0 °F - 50.0 °F 100% 29.63 in 10.0 mi Calm Calm - 0.02 in Rain Light Rain
4:15 AM 50.0 °F - 50.0 °F 100% 29.62 in 7.0 mi WSW 3.5 mph - N/A Rain Light Rain
4:35 AM 50.0 °F - 50.0 °F 100% 29.63 in 7.0 mi SSW 4.6 mph - N/A Rain , Thunderstorm Rain
4:55 AM 50.0 °F - 50.0 °F 100% 29.59 in 5.0 mi North 4.6 mph - N/A Rain , Thunderstorm Light Thunderstorms and Rain
5:15 AM 50.0 °F - 50.0 °F 100% 29.60 in 4.0 mi NNW 10.4 mph - 0.01 in Rain , Thunderstorm Heavy Thunderstorms and Rain
5:35 AM 50.0 °F - 50.0 °F 100% 29.65 in 4.0 mi Calm Calm - 0.01 in Rain , Thunderstorm Heavy Thunderstorms and Rain
5:55 AM 50.0 °F - 50.0 °F 100% 29.66 in 3.0 mi Calm Calm - 0.02 in Rain , Thunderstorm Heavy Thunderstorms and Rain
6:15 AM 50.0 °F - 50.0 °F 100% 29.65 in 7.0 mi NNW 3.5 mph - 0.01 in Rain Rain
6:35 AM 50.0 °F - 50.0 °F 100% 29.63 in 10.0 mi Calm Calm - 0.01 in Rain Rain
6:55 AM 50.0 °F - 50.0 °F 100% 29.61 in 10.0 mi Calm Calm - 0.01 in   Overcast
7:15 AM 50.0 °F - 50.0 °F 100% 29.61 in 10.0 mi Calm Calm - N/A   Overcast
7:35 AM 50.0 °F - 50.0 °F 100% 29.62 in 10.0 mi Calm Calm - N/A   Overcast
7:55 AM 50.0 °F - 50.0 °F 100% 29.62 in 10.0 mi Calm Calm - N/A   Overcast
8:15 AM 50.0 °F - 50.0 °F 100% 29.62 in 3.0 mi Calm Calm - N/A   Heavy Drizzle
8:35 AM 50.0 °F - 50.0 °F 100% 29.61 in 2.5 mi Calm Calm - N/A   Drizzle
8:55 AM 50.0 °F - 50.0 °F 100% 29.61 in 2.5 mi Calm Calm - N/A   Drizzle
9:15 AM 50.0 °F - 50.0 °F 100% 29.62 in 4.0 mi Calm Calm - N/A   Light Drizzle
9:35 AM 50.0 °F - 50.0 °F 100% 29.62 in 5.0 mi Calm Calm - N/A Rain Rain
9:55 AM 50.0 °F - 50.0 °F 100% 29.63 in 3.0 mi Calm Calm - N/A   Drizzle
10:15 AM 50.0 °F - 50.0 °F 100% 29.63 in 2.0 mi Calm Calm - N/A   Heavy Drizzle
10:35 AM 51.8 °F - 51.8 °F 100% 29.64 in 3.0 mi Calm Calm - N/A   Drizzle
10:55 AM 51.8 °F - 51.8 °F 100% 29.65 in 10.0 mi South 4.6 mph - N/A   Overcast
11:15 AM 51.8 °F - 51.8 °F 100% 29.62 in 10.0 mi SSE 6.9 mph - N/A   Overcast
11:35 AM 51.8 °F - 51.8 °F 100% 29.63 in 10.0 mi SSE 9.2 mph - N/A   Overcast
11:55 AM 51.8 °F - 51.8 °F 100% 29.60 in 10.0 mi SSE 9.2 mph - N/A   Overcast
12:15 PM 53.6 °F - 53.6 °F 100% 29.60 in 10.0 mi SSE 9.2 mph - N/A   Scattered Clouds
12:35 PM 55.4 °F - 51.8 °F 88% 29.59 in 10.0 mi South 6.9 mph - N/A   Mostly Cloudy
12:55 PM 55.4 °F - 51.8 °F 88% 29.57 in 10.0 mi SSE 6.9 mph - N/A   Mostly Cloudy
1:15 PM 57.2 °F - 51.8 °F 82% 29.58 in 10.0 mi South 8.1 mph - N/A   Mostly Cloudy
1:35 PM 55.4 °F - 50.0 °F 82% 29.59 in 10.0 mi South 8.1 mph - N/A   Overcast
1:55 PM 55.4 °F - 50.0 °F 82% 29.58 in 10.0 mi South 8.1 mph - N/A   Overcast
2:15 PM 55.4 °F - 48.2 °F 77% 29.57 in 10.0 mi South 9.2 mph 18.4 mph N/A   Overcast
2:35 PM 53.6 °F - 48.2 °F 82% 29.57 in 10.0 mi South 9.2 mph 16.1 mph N/A   Overcast
2:55 PM 53.6 °F - 48.2 °F 82% 29.55 in 10.0 mi SSE 9.2 mph - N/A   Overcast
3:15 PM 53.6 °F - 48.2 °F 82% 29.55 in 10.0 mi SSE 9.2 mph - N/A   Overcast
3:35 PM 53.6 °F - 48.2 °F 82% 29.55 in 10.0 mi South 5.8 mph - N/A   Overcast
3:55 PM 53.6 °F - 48.2 °F 82% 29.54 in 10.0 mi SSE 11.5 mph - N/A   Overcast
4:15 PM 53.6 °F - 48.2 °F 82% 29.51 in 10.0 mi SSE 12.7 mph 16.1 mph N/A   Overcast
4:35 PM 53.6 °F - 48.2 °F 82% 29.51 in 10.0 mi South 9.2 mph 16.1 mph N/A   Overcast
4:55 PM 53.6 °F - 48.2 °F 82% 29.50 in 10.0 mi South 8.1 mph - N/A   Overcast
5:15 PM 53.6 °F - 48.2 °F 82% 29.50 in 10.0 mi South 8.1 mph 18.4 mph N/A   Overcast
5:35 PM 51.8 °F - 48.2 °F 88% 29.47 in 10.0 mi SSE 11.5 mph 19.6 mph N/A   Overcast
5:55 PM 51.8 °F - 48.2 °F 88% 29.46 in 10.0 mi SSE 13.8 mph 21.9 mph N/A   Overcast
6:15 PM 51.8 °F - 50.0 °F 94% 29.48 in 10.0 mi Calm Calm - N/A Thunderstorm Drizzle
6:35 PM 50.0 °F - 50.0 °F 100% 29.53 in 10.0 mi West 9.2 mph - N/A Rain Rain
6:55 PM 50.0 °F - 50.0 °F 100% 29.53 in 7.0 mi Calm Calm - N/A Rain Light Rain
7:15 PM 51.8 °F - 51.8 °F 100% 29.54 in 10.0 mi Calm Calm - N/A   Overcast
7:35 PM 51.8 °F - 48.2 °F 88% 29.55 in 10.0 mi West 3.5 mph - N/A   Overcast
7:55 PM 51.8 °F - 44.6 °F 76% 29.56 in 10.0 mi WSW 3.5 mph - N/A   Mostly Cloudy
8:15 PM 51.8 °F - 42.8 °F 71% 29.57 in 10.0 mi Calm Calm - N/A   Mostly Cloudy
8:35 PM 51.8 °F - 42.8 °F 71% 29.58 in 10.0 mi SW 5.8 mph - N/A   Overcast
8:55 PM 50.0 °F - 41.0 °F 71% 29.59 in 10.0 mi WSW 5.8 mph - N/A   Overcast
9:15 PM 48.2 °F - 37.4 °F 66% 29.62 in 10.0 mi West 12.7 mph 28.8 mph N/A   Mostly Cloudy
9:35 PM 46.4 °F 42.4 °F 33.8 °F 62% 29.65 in 10.0 mi West 8.1 mph 20.7 mph N/A   Mostly Cloudy
9:55 PM 44.6 °F 38.8 °F 33.8 °F 66% 29.67 in 10.0 mi West 11.5 mph 21.9 mph N/A   Overcast
10:15 PM 44.6 °F 39.7 °F 33.8 °F 66% 29.69 in 10.0 mi West 9.2 mph 16.1 mph N/A   Overcast
10:35 PM 42.8 °F 37.5 °F 32.0 °F 66% 29.70 in 10.0 mi West 9.2 mph 20.7 mph N/A   Overcast
10:55 PM 42.8 °F 37.5 °F 32.0 °F 66% 29.70 in 10.0 mi West 9.2 mph - N/A   Overcast
11:15 PM 42.8 °F 37.5 °F 32.0 °F 66% 29.71 in 10.0 mi West 9.2 mph 16.1 mph N/A   Overcast
11:35 PM 42.8 °F 38.6 °F 32.0 °F 66% 29.71 in 10.0 mi West 6.9 mph - N/A   Overcast
11:55 PM 42.8 °F 38.0 °F 32.0 °F 66% 29.71 in 10.0 mi West 8.1 mph - N/A   Overcast